Torna al catalogo

COSMOS 2168

AttivoNavigazionePO
NORAD 21782·PAYLOAD·🇷🇺 Russia

Lanciato Nov 12, 1991 da Plesetsk Cosmodrome

Loading…

Prossimi Passaggi (prossime 24 ore)

TLE

AggiornatoSource: Space-Track

Epoca: Sep 14, 2026, 11:58 UTC

1 21782U 91077D   26257.49928168  .00000035  00000-0  13070-3 0  9995
2 21782  82.6001 155.7182 0013236 176.5172 358.0742 12.65533349609096

Traccia COSMOS 2168 in tempo reale con AllMySat

Download on the App Store